• In Belarus
  • List of Countries
  • For 7 days
  • Water Temperature
  • Satellite Maps
  • Weather Map
  • Weather Widgets
  • user-avatar
    Login

    Hourly Weather Trashigang

    Today, 21 September, Friday

    Time Temperature Precipitation Wind Pressure Humidity
    00:00 +20°C° 0 mm 1 mps 629 mmHg 81%
    01:00 +20°C° 0.2 mm 1 mps 629 mmHg 80%
    02:00 +20°C° 0.2 mm 1 mps 629 mmHg 79%
    03:00 +20°C° 0.2 mm 1 mps 628 mmHg 78%
    04:00 +20°C° 0.1 mm 1 mps 629 mmHg 77%
    05:00 +20°C° 0.1 mm 1 mps 629 mmHg 77%
    06:00 +20°C° 0.1 mm 1 mps 629 mmHg 76%
    07:00 +22°C° 0 mm 1 mps 630 mmHg 70%
    08:00 +24°C° 0 mm 1 mps 631 mmHg 64%
    09:00 +26°C° 0 mm 1 mps 632 mmHg 58%
    10:00 +27°C° 0 mm 1 mps 632 mmHg 58%
    11:00 +27°C° 0 mm 2 mps 632 mmHg 58%
    12:00 +27°C° 0 mm 2 mps 632 mmHg 59%
    13:00 +27°C° 0.1 mm 2 mps 632 mmHg 61%
    14:00 +27°C° 0.1 mm 2 mps 631 mmHg 62%
    15:00 +27°C° 0.1 mm 1 mps 630 mmHg 64%
    16:00 +25°C° 0.1 mm 1 mps 630 mmHg 74%
    17:00 +23°C° 0.1 mm 1 mps 629 mmHg 84%
    18:00 +19°C° 0.1 mm 0 mps 629 mmHg 94%
    19:00 +19°C° 0.2 mm 0 mps 629 mmHg 94%
    20:00 +21°C° 0.2 mm 1 mps 630 mmHg 93%
    21:00 +21°C° 0.2 mm 1 mps 630 mmHg 93%
    22:00 +20°C° 0.4 mm 1 mps 630 mmHg 92%
    23:00 +20°C° 0.4 mm 1 mps 630 mmHg 91%

    Tomorrow, 22 September, Saturday

    Time Temperature Precipitation Wind Pressure Humidity
    00:00 +20°C° 0.4 mm 1 mps 630 mmHg 90%
    01:00 +20°C° 0.3 mm 1 mps 630 mmHg 89%
    02:00 +20°C° 0.3 mm 1 mps 630 mmHg 88%
    03:00 +20°C° 0.3 mm 1 mps 629 mmHg 88%
    04:00 +19°C° 0.1 mm 1 mps 630 mmHg 87%
    05:00 +19°C° 0.1 mm 1 mps 630 mmHg 87%
    06:00 +19°C° 0.1 mm 1 mps 630 mmHg 87%
    07:00 +21°C° 0 mm 1 mps 631 mmHg 79%
    08:00 +23°C° 0 mm 1 mps 632 mmHg 72%
    09:00 +26°C° 0 mm 1 mps 633 mmHg 65%
    10:00 +26°C° 0.3 mm 1 mps 632 mmHg 67%
    11:00 +26°C° 0.3 mm 2 mps 632 mmHg 69%
    12:00 +26°C° 0.3 mm 2 mps 631 mmHg 71%
    13:00 +26°C° 0.6 mm 2 mps 631 mmHg 74%
    14:00 +25°C° 0.6 mm 2 mps 630 mmHg 77%
    15:00 +25°C° 0.6 mm 2 mps 629 mmHg 80%
    16:00 +24°C° 0.2 mm 1 mps 629 mmHg 86%
    17:00 +23°C° 0.2 mm 1 mps 629 mmHg 91%
    18:00 +22°C° 0.2 mm 1 mps 629 mmHg 97%
    19:00 +21°C° 0.1 mm 1 mps 629 mmHg 97%
    20:00 +19°C° 0.1 mm 0 mps 630 mmHg 96%
    21:00 +19°C° 0.1 mm 0 mps 630 mmHg 96%
    22:00 +21°C° 0 mm 1 mps 630 mmHg 95%
    23:00 +20°C° 0 mm 1 mps 630 mmHg 94%

    Day after tomorrow, 23 September, Sunday

    Time Temperature Precipitation Wind Pressure Humidity
    00:00 +20°C° 0 mm 1 mps 630 mmHg 93%
    01:00 +20°C° 0 mm 1 mps 629 mmHg 92%
    02:00 +20°C° 0 mm 1 mps 629 mmHg 91%
    03:00 +19°C° 0 mm 1 mps 629 mmHg 90%
    04:00 +19°C° 0 mm 1 mps 629 mmHg 89%
    05:00 +19°C° 0 mm 1 mps 629 mmHg 88%
    06:00 +19°C° 0 mm 1 mps 629 mmHg 87%
    07:00 +21°C° 0 mm 1 mps 630 mmHg 81%
    08:00 +23°C° 0 mm 1 mps 631 mmHg 74%
    09:00 +25°C° 0 mm 1 mps 632 mmHg 68%
    10:00 +26°C° 0.3 mm 1 mps 632 mmHg 70%
    11:00 +26°C° 0.3 mm 2 mps 631 mmHg 72%
    12:00 +26°C° 0.3 mm 2 mps 631 mmHg 73%
    13:00 +26°C° 0.3 mm 2 mps 630 mmHg 76%
    14:00 +25°C° 0.3 mm 2 mps 629 mmHg 78%
    15:00 +25°C° 0.3 mm 2 mps 628 mmHg 80%
    16:00 +24°C° 0.1 mm 1 mps 628 mmHg 86%
    17:00 +23°C° 0.1 mm 1 mps 628 mmHg 91%
    18:00 +20°C° 0.1 mm 0 mps 628 mmHg 97%
    19:00 +19°C° 0 mm 0 mps 628 mmHg 97%
    20:00 +19°C° 0 mm 0 mps 629 mmHg 96%
    21:00 +19°C° 0 mm 0 mps 629 mmHg 96%
    22:00 +18°C° 0 mm 0 mps 629 mmHg 95%
    23:00 +18°C° 0 mm 0 mps 629 mmHg 94%

    24 September, Monday

    Time Temperature Precipitation Wind Pressure Humidity
    00:00 +18°C° 0 mm 0 mps 629 mmHg 94%
    01:00 +18°C° 0.1 mm 0 mps 628 mmHg 93%
    02:00 +18°C° 0.1 mm 0 mps 628 mmHg 92%
    03:00 +20°C° 0.1 mm 1 mps 628 mmHg 92%
    04:00 +18°C° 0.1 mm 0 mps 628 mmHg 91%
    05:00 +17°C° 0.1 mm 0 mps 628 mmHg 91%
    06:00 +17°C° 0.1 mm 0 mps 628 mmHg 90%
    07:00 +21°C° 0.1 mm 1 mps 629 mmHg 86%
    08:00 +22°C° 0.1 mm 1 mps 629 mmHg 82%
    09:00 +23°C° 0.1 mm 1 mps 630 mmHg 78%
    10:00 +24°C° 0.1 mm 1 mps 630 mmHg 75%
    11:00 +25°C° 0.1 mm 1 mps 629 mmHg 72%
    12:00 +26°C° 0.1 mm 2 mps 629 mmHg 69%
    13:00 +25°C° 0.4 mm 2 mps 628 mmHg 73%
    14:00 +24°C° 0.4 mm 2 mps 627 mmHg 77%
    15:00 +24°C° 0.4 mm 1 mps 627 mmHg 82%
    16:00 +23°C° 0.2 mm 1 mps 626 mmHg 87%
    17:00 +22°C° 0.2 mm 1 mps 626 mmHg 92%
    18:00 +19°C° 0.2 mm 0 mps 626 mmHg 96%
    19:00 +19°C° 0.1 mm 0 mps 627 mmHg 96%
    20:00 +19°C° 0.1 mm 0 mps 627 mmHg 96%
    21:00 +18°C° 0.1 mm 0 mps 628 mmHg 96%
    22:00 +18°C° 0.1 mm 0 mps 628 mmHg 95%
    23:00 +18°C° 0.1 mm 0 mps 627 mmHg 94%

    25 September, Tuesday

    Time Temperature Precipitation Wind Pressure Humidity
    00:00 +18°C° 0.1 mm 0 mps 627 mmHg 94%
    01:00 +18°C° 0.1 mm 0 mps 627 mmHg 93%
    02:00 +17°C° 0.1 mm 0 mps 626 mmHg 93%
    03:00 +17°C° 0.1 mm 0 mps 626 mmHg 92%
    04:00 +17°C° 0 mm 0 mps 626 mmHg 91%
    05:00 +17°C° 0 mm 0 mps 626 mmHg 91%
    06:00 +17°C° 0 mm 0 mps 627 mmHg 90%
    07:00 +20°C° 0 mm 1 mps 627 mmHg 86%
    08:00 +22°C° 0 mm 1 mps 628 mmHg 82%
    09:00 +23°C° 0 mm 1 mps 629 mmHg 78%
    10:00 +24°C° 0.2 mm 1 mps 628 mmHg 76%
    11:00 +24°C° 0.2 mm 1 mps 628 mmHg 75%
    12:00 +25°C° 0.2 mm 2 mps 628 mmHg 73%
    13:00 +25°C° 0.4 mm 2 mps 627 mmHg 76%
    14:00 +24°C° 0.4 mm 2 mps 626 mmHg 78%
    15:00 +24°C° 0.4 mm 1 mps 625 mmHg 80%
    16:00 +23°C° 0.2 mm 1 mps 625 mmHg 86%
    17:00 +22°C° 0.2 mm 1 mps 625 mmHg 91%
    18:00 +19°C° 0.2 mm 0 mps 625 mmHg 97%
    19:00 +18°C° 0.1 mm 0 mps 626 mmHg 97%
    20:00 +18°C° 0.1 mm 0 mps 626 mmHg 96%
    21:00 +18°C° 0.1 mm 0 mps 627 mmHg 96%
    22:00 +18°C° 0 mm 0 mps 626 mmHg 96%
    23:00 +18°C° 0 mm 0 mps 626 mmHg 95%

    26 September, Wednesday

    Time Temperature Precipitation Wind Pressure Humidity
    00:00 +17°C° 0 mm 0 mps 626 mmHg 95%
    01:00 +17°C° 0 mm 0 mps 626 mmHg 94%
    02:00 +17°C° 0 mm 0 mps 625 mmHg 92%
    03:00 +17°C° 0 mm 0 mps 625 mmHg 91%
    04:00 +17°C° 0 mm 0 mps 625 mmHg 91%
    05:00 +17°C° 0 mm 0 mps 626 mmHg 90%
    06:00 +17°C° 0 mm 0 mps 626 mmHg 89%
    07:00 +20°C° 0 mm 1 mps 627 mmHg 84%
    08:00 +22°C° 0 mm 1 mps 628 mmHg 78%
    09:00 +24°C° 0 mm 1 mps 628 mmHg 73%
    10:00 +24°C° 0.2 mm 1 mps 628 mmHg 73%
    11:00 +25°C° 0.2 mm 2 mps 628 mmHg 72%
    12:00 +25°C° 0.2 mm 2 mps 628 mmHg 72%
    13:00 +25°C° 0.3 mm 2 mps 627 mmHg 76%
    14:00 +24°C° 0.3 mm 2 mps 626 mmHg 80%
    15:00 +23°C° 0.3 mm 1 mps 625 mmHg 84%
    16:00 +23°C° 0.2 mm 1 mps 625 mmHg 88%
    17:00 +22°C° 0.2 mm 1 mps 625 mmHg 93%
    18:00 +21°C° 0.2 mm 1 mps 625 mmHg 97%
    19:00 +19°C° 0.1 mm 0 mps 626 mmHg 97%
    20:00 +18°C° 0.1 mm 0 mps 626 mmHg 96%
    21:00 +18°C° 0.1 mm 0 mps 627 mmHg 96%
    22:00 +18°C° 0.1 mm 0 mps 627 mmHg 95%
    23:00 +18°C° 0.1 mm 0 mps 627 mmHg 95%
    Show more